This demonstration page uses our WeatherBlox Daily Observations layout. Learn more.

Left ArrowRight Arrow

38.89511, -77.03637

Hourly Observations for May 17, 2018

Temp ( °F °C ) Dew Point ( °F °C ) Humidity (%) Winds ( mph kmh ) Pressure ( in mb ) Visibility ( mi km ) Precip ( " mm )
12:12 am 00:12 Cloudy with Light Rain 67 19.4 64 17.8 91 91 NE 9 15 29.97 1015 5 8 0.00 0.03
12:52 am 00:52 Cloudy with Mist and Fog 67 19.4 64 17.8 91 91 NE 8 13 29.96 1015 5 8 0.00 0.03
1:33 am 01:33 Cloudy with Mist and Fog 67 19.4 64 17.8 91 91 NE 7 11 29.94 1014 5 8 0.00 0.00
1:52 am 01:52 Cloudy with Mist and Fog 67 19.4 64 17.8 91 91 NE 6 9 29.95 1014 5 8 0.00 0.00
2:52 am 02:52 Cloudy with Mist and Fog 67 19.4 64 17.8 91 91 NNE 7 11 29.94 1014 5 8 0.00 0.00
3:08 am 03:08 Cloudy with Mist and Fog 67 19.4 64 17.8 91 91 NE 8 13 29.94 1014 5 8 0.00 0.00
3:52 am 03:52 Cloudy with Mist and Fog 67 19.4 65 18.3 93 93 ENE 7 11 29.93 1014 5 8 0.00 0.00
3:56 am 03:56 Cloudy with Mist and Fog 67 19.4 65 18.3 93 93 NE 7 11 29.94 1014 2 2 0.00 0.00
4:10 am 04:10 Cloudy with Mist and Fog 67 19.4 65 18.3 93 93 NE 7 11 29.94 1014 3 4 0.00 0.00
4:32 am 04:32 Cloudy with Light Rain 67 19.4 65 18.3 93 93 NE 8 13 29.94 1014 3 5 0.00 0.03
4:52 am 04:52 Cloudy with Light Rain 67 19.4 65 18.3 93 93 NE 6 9 29.93 1013 2 3 0.00 0.03
5:35 am 05:35 Cloudy with Drizzle 67 19.4 65 18.3 93 93 NE 7 11 29.94 1014 2 3 0.00 0.03
5:52 am 05:52 Cloudy with Drizzle 67 19.4 65 18.3 93 93 NE 7 11 29.94 1014 2 2 0.00 0.03
6:07 am 06:07 Cloudy with Drizzle 67 19.4 65 18.3 93 93 ENE 8 13 29.94 1014 1 2 0.01 0.25
6:29 am 06:29 Cloudy with Drizzle 67 19.4 65 18.3 93 93 NE 9 15 29.94 1014 2 3 0.01 0.25
6:52 am 06:52 Cloudy with Drizzle 67 19.4 65 18.3 93 93 NE 8 13 29.95 1014 3 4 0.02 0.51
7:15 am 07:15 Cloudy with Light Rain 67 19.4 64 17.8 91 91 N 12 19 29.97 1015 1 2 0.00 0.03
7:48 am 07:48 Cloudy with Drizzle 66 19 64 18 94 94 NNE 9 15 29.97 1015 3 5 0.02 0.51
7:52 am 07:52 Cloudy with Drizzle 67 19.4 64 17.8 91 91 NE 7 11 29.97 1015 3 5 0.02 0.51
7:59 am 07:59 Cloudy with Drizzle 67 19.4 64 17.8 91 91 NE 9 15 29.97 1015 3 5 0.00 0.03
8:09 am 08:09 Cloudy with Drizzle 67 19.4 64 17.8 91 91 ENE 8 13 29.97 1015 4 6 0.00 0.03
8:52 am 08:52 Cloudy with Rain 67 19.4 64 17.8 91 91 NNE 12 19 29.98 1015 3 5 0.06 1.52
9:17 am 09:17 Cloudy with Light Rain 67 19.4 64 17.8 91 91 NE 9 15 30.00 1016 4 6 0.03 0.76
9:52 am 09:52 Cloudy with Light Rain 67 19.4 63 17.2 87 87 NNE 9 15 30.00 1016 6 10 0.03 0.76
10:41 am 10:41 Cloudy with Light Rain 67 19.4 63 17.2 87 87 NNE 10 17 30.00 1016 6 10 0.01 0.25
10:52 am 10:52 Cloudy with Mist and Fog 68 20 64 17.8 87 87 NE 8 13 30.01 1016 6 10 0.01 0.25
11:07 am 11:07 Cloudy 68 20 64 17.8 87 87 NNE 9 15 30.00 1016 10 16 0.00 0.00
11:52 am 11:52 Cloudy with Light Rain 68 20 64 17.8 87 87 ENE 8 13 30.02 1017 6 10 0.00 0.03
11:59 am 11:59 Cloudy with Light Rain 68 20 64 17.8 87 87 ENE 6 9 30.03 1017 4 6 0.01 0.25
12:03 pm 12:03 Cloudy with Rain 67 19.4 64 17.8 91 91 E 6 9 30.03 1017 3 4 0.03 0.76
12:07 pm 12:07 Cloudy with Heavy Rain 67 19.4 64 17.8 91 91 E 6 9 30.03 1017 2 2 0.07 1.78
12:13 pm 12:13 Cloudy with Rain 67 19.4 64 17.8 91 91 ENE 8 13 30.03 1017 2 3 0.09 2.29
12:20 pm 12:20 Cloudy with Rain 67 19.4 64 17.8 91 91 ENE 9 15 30.03 1017 2 2 0.11 2.79
12:28 pm 12:28 Cloudy with Heavy Rain 67 19.4 64 17.8 91 91 ENE 6 9 30.03 1017 2 2 0.16 4.06
12:38 pm 12:38 Cloudy with Light Rain 67 19.4 64 17.8 91 91 ENE 6 9 30.03 1017 3 4 0.20 5.08
12:52 pm 12:52 Cloudy with Light Rain 68 20 65 18.3 90 90 NE 9 15 30.02 1017 3 4 0.22 5.59
1:04 pm 13:04 Cloudy with Light Rain 68 20 65 18.3 90 90 NE 10 17 30.03 1017 4 6 0.01 0.25
1:52 pm 13:52 Cloudy with Light Rain 68 20 65 18.3 90 90 NE 10 17 30.01 1016 4 6 0.08 2.03
2:05 pm 14:05 Cloudy with Light Rain 68 20 65 18.3 90 90 NE 9 15 30.03 1017 5 8 0.00 0.03
2:18 pm 14:18 Cloudy with Rain 68 20 65 18.3 90 90 NNE 8 13 30.03 1017 2 3 0.03 0.76
2:38 pm 14:38 Cloudy with Light Rain 68 20 64 17.8 87 87 NNE 9 15 30.03 1017 4 6 0.06 1.52
2:52 pm 14:52 Cloudy with Nearby Thunderstorms 69 20.6 65 18.3 87 87 NNE 8 13 30.02 1017 4 6 0.06 1.52
3:01 pm 15:01 Cloudy with Nearby Thunderstorms 69 20.6 65 18.3 87 87 NE 12 19 30.03 1017 10 16 0.00 0.03
3:04 pm 15:04 Cloudy with Nearby Thunderstorms 69 20.6 65 18.3 87 87 NE 10 17 30.03 1017 10 16 0.00 0.03
3:06 pm 15:06 Cloudy 69 20.6 65 18.3 87 87 NNE 12 19 30.03 1017 10 16 0.00 0.03
3:13 pm 15:13 Cloudy with Light Rain 69 20.6 65 18.3 87 87 NE 9 15 30.03 1017 9 14 0.00 0.03
3:45 pm 15:45 Cloudy with Light Rain 69 20.6 65 18.3 87 87 ENE 12 19 30.03 1017 9 14 0.00 0.03
3:52 pm 15:52 Cloudy with Light Rain 69 20.6 65 18.3 87 87 NE 13 20 30.01 1016 6 10 0.01 0.25
3:56 pm 15:56 Cloudy with Light Rain 69 20.6 65 18.3 87 87 NE 12 19 30.03 1017 4 6 0.01 0.25
4:01 pm 16:01 Cloudy with Rain 68 20 65 18.3 90 90 NE 10 17 30.03 1017 2 3 0.03 0.76
4:03 pm 16:03 Mostly Cloudy with Heavy Rain 69 20.6 65 18.3 87 87 NE 12 19 30.03 1017 2 2 0.04 1.02
4:09 pm 16:09 Cloudy with Heavy Rain 68 20 65 18.3 90 90 NE 9 15 30.03 1017 1 2 0.10 2.54
4:14 pm 16:14 Cloudy with Light Rain 68 20 65 18.3 90 90 NE 8 13 30.03 1017 3 4 0.10 2.54
4:16 pm 16:16 Cloudy with Light Rain 68 20 65 18.3 90 90 ENE 9 15 30.03 1017 4 6 0.10 2.54
4:25 pm 16:25 Cloudy with Light Rain 68 20 65 18.3 90 90 NE 8 13 30.03 1017 3 5 0.11 2.79
4:35 pm 16:35 Cloudy with Light Rain 68 20 65 18.3 90 90 NE 7 11 30.03 1017 3 5 0.12 3.05
4:52 pm 16:52 Cloudy with Rain 68 20 65 18.3 90 90 NE 10 17 30.02 1017 3 4 0.14 3.56
4:58 pm 16:58 Cloudy with Light Rain 68 20 65 18.3 90 90 NE 12 19 30.03 1017 3 5 0.01 0.25
5:23 pm 17:23 Cloudy with Light Rain 68 20 65 18.3 90 90 NE 8 13 30.03 1017 3 5 0.02 0.51
5:52 pm 17:52 Cloudy with Light Rain 68 20 65 18.3 90 90 NE 10 17 30.02 1017 10 16 0.03 0.76
5:54 pm 17:54 Cloudy with Light Rain 68 20 65 18.3 90 90 NE 10 17 30.03 1017 10 16 0.00 0.03
6:52 pm 18:52 Cloudy 68 20 64 17.8 87 87 ENE 10 17 30.02 1017 10 16 0.00 0.03
7:10 pm 19:10 Cloudy 68 20 64 17.8 87 87 ENE 9 15 30.03 1017 10 16 0.00 0.00
7:44 pm 19:44 Cloudy 68 20 64 17.8 87 87 ENE 8 13 30.03 1017 10 16 0.00 0.00
7:52 pm 19:52 Cloudy 68 20 64 17.8 87 87 ENE 7 11 30.04 1017 10 16 0.00 0.00
8:08 pm 20:08 Cloudy with Light Rain 67 19.4 64 17.8 91 91 ENE 8 13 30.03 1017 6 10 0.00 0.03
8:31 pm 20:31 Cloudy with Rain 67 19.4 64 17.8 91 91 NE 10 17 30.06 1018 3 5 0.03 0.76
8:42 pm 20:42 Cloudy with Rain 67 19.4 64 17.8 91 91 NE 10 17 30.06 1018 3 4 0.08 2.03
8:52 pm 20:52 Cloudy with Light Rain 67 19.4 64 17.8 91 91 NE 9 15 30.04 1017 3 5 0.13 3.30
9:07 pm 21:07 Cloudy with Light Rain 67 19.4 64 17.8 91 91 NE 7 11 30.06 1018 10 16 0.01 0.25
9:13 pm 21:13 Cloudy with Light Rain 67 19.4 64 17.8 91 91 ENE 8 13 30.06 1018 10 16 0.01 0.25
9:17 pm 21:17 Cloudy with Light Rain 67 19.4 64 17.8 91 91 NE 6 9 30.06 1018 10 16 0.01 0.25
9:52 pm 21:52 Cloudy with Light Rain 67 19.4 64 17.8 91 91 NE 8 13 30.06 1018 10 16 0.01 0.25
10:52 pm 22:52 Cloudy with Light Rain 67 19.4 63 17.2 87 87 NE 8 13 30.06 1018 10 16 0.02 0.51
11:02 pm 23:02 Cloudy with Light Rain 67 19.4 63 17.2 87 87 NE 10 17 30.06 1018 10 16 0.01 0.25
11:49 pm 23:49 Cloudy with Light Rain 66 19 64 18 94 94 NE 7 11 30.06 1018 4 6 0.02 0.51
11:52 pm 23:52 Cloudy with Light Rain 67 19.4 64 17.8 91 91 NE 8 13 30.06 1018 4 6 0.02 0.51

Powered by AerisWeather